Home   Weather   Inglewood   Past weeks

Flag for USA Past Weather in Inglewood, California, USA — Yesterday and Last 2 Weeks

Now
52 °F

Overcast.


Feels Like: 52 °F
Forecast: 50 / 63 °F
Wind: No wind

Location: Hawthorne Municipal Airport

Current Time: Dec 7, 2016 at 4:38:29 am

Latest Report: Dec 7, 2016 at 3:53 am


Visibility: 9 mi

Pressure: 30.03 "Hg

Humidity: 89%

Dew Point: 49 °F

Location of InglewoodLocation

Past Weather in Inglewood — Graph

°F

Inglewood Temperature Yesterday

Maximum temperature yesterday: 65 °F (at 12:53 pm)
Minimum temperature yesterday: 54 °F (at 11:53 pm)
Average temperature yesterday: 59 °F

High & Low Weather Summary for the Past Weeks

 TemperatureHumidityPressure
High81 °F (Nov 24, 1:53 pm)100% (Dec 5, 2:53 am)30.17 "Hg (Dec 5, 2:53 am)
Low44 °F (Dec 3, 4:53 am)10% (Nov 25, 11:53 am)29.82 "Hg (Nov 28, 4:53 pm)
Average58 °F59%30.02 "Hg
* Reported Nov 22 2:53 am — Dec 7 2:53 am, Inglewood, Weather by CustomWeather, © 2016

Note: Actual official high and low records may vary slightly from our data, if they occured in-between our weather recording intervals... More about our weather records

Advertising

Inglewood Weather History for the Previous 24 Hours

Scroll right to see more
 ConditionsComfort  
Time TempWeatherWind HumidityBarometerVisibility
2:53 am
Wed, Dec 7
52 °FOvercast.No wind93%30.03 "Hg8 mi
1:53 am52 °FPassing clouds.No wind93%30.03 "Hg7 mi
12:53 am53 °FClear.No wind93%30.02 "Hg8 mi
11:53 pm
Tue, Dec 6
54 °FClear.No wind90%30.02 "Hg9 mi
10:53 pm55 °FClear.No wind90%30.02 "Hg9 mi
9:53 pm56 °FClear.No wind87%30.01 "Hg9 mi
8:53 pm57 °FClear.No wind83%30.00 "Hg10 mi
7:53 pm58 °FClear.No wind84%29.99 "Hg10 mi
6:53 pm58 °FPassing clouds.3 mph84%29.99 "Hg10 mi
5:53 pm59 °FPassing clouds.5 mph81%29.98 "Hg10 mi
4:53 pm60 °FClear.6 mph78%29.97 "Hg10 mi
3:53 pm61 °FSunny.8 mph67%29.96 "Hg10 mi
2:53 pm63 °FPartly sunny.9 mph60%29.96 "Hg10 mi
1:53 pm63 °FScattered clouds.9 mph65%29.95 "Hg10 mi
12:53 pm65 °FScattered clouds.10 mph59%29.96 "Hg10 mi
11:53 am62 °FPartly sunny.No wind58%29.98 "Hg10 mi
10:53 am63 °FMore clouds than sun.3 mph58%30.01 "Hg10 mi
9:53 am61 °FPartly sunny.3 mph67%30.02 "Hg10 mi
8:53 am59 °FBroken clouds.No wind69%30.01 "Hg10 mi
7:53 am58 °FPartly sunny.No wind75%30.01 "Hg10 mi
7:00 am56 °FBroken clouds.No wind81%29.99 "Hg10 mi
5:53 am56 °FMostly cloudy.No wind81%29.98 "Hg10 mi
4:53 am57 °FPassing clouds.3 mph78%29.96 "Hg10 mi
Weather by CustomWeather, © 2016

See weather overviewHow to use our weather pages